COSMOS 2221

Last updated on Sat Aug 15 2026 00:02:07 GMT+0000 (Coordinated Universal Time)

1 22236U 92080A 26226.23997225 .00000756 00000+0 63801-4 0 9990 2 22236 82.5048 128.1470 0015095 28.5709 331.6337 14.96678287804352
UTC large
Height (km)
Speed (km/s)
/
Latitude / Longitude
Inclination (degrees)
Orbital Period (minutes)
Azimuth
Elevation
Range (km)
Doppler Factor

Next 0 passes for location: London (51.5072 / 0.1276)

No passes found over London.
COSMOS 2221